Location: Poughquag
(41.6090°N, 73.6820°W)
Time: 12:48:34
(UTC-04:00)

Tiros 1 - Pass Details

Date: 01 June 2020
Orbit: 630 x 664 km, 48.4° (Epoch: 06 July)

Event Time Altitude Azimuth Distance (km) Brightness Sun altitude
Rises 12:20:52 0° 224° (SW) 2,971 10.7 69.5°
Reaches altitude 10° 12:23:15 10° 219° (SW) 2,058 10.0 69.6°
Maximum altitude 12:27:51 51° 144° (SE) 820 9.3 69.9°
Drops below altitude 10° 12:32:25 10° 69° (ENE) 2,046 9.8 70.1°
Sets 12:34:48 0° 64° (ENE) 2,953 10.5 70.2°
